COSMOS 2544 (759)

Last updated on Fri Jun 19 2026 17:09:56 GMT+0000 (Coordinated Universal Time)

1 44850U 19088A 26169.43716075 -.00000023 00000+0 00000+0 0 9998 2 44850 65.5663 73.6893 0013127 258.8621 101.0278 2.13102753 50745
UTC large
Height (km)
Speed (km/s)
/
Latitude / Longitude
Inclination (degrees)
Orbital Period (minutes)
Azimuth
Elevation
Range (km)
Doppler Factor

Next 0 passes for location: London (51.5072 / 0.1276)

No passes found over London.
COSMOS 2544 (759)